#timestamp,LO_Frequency,Hit,StdDev 
1674507615.8,286047004.8,N
1674507635.6,286047001.4,N
1674507655.5,286047004.1,N
1674507675.3,286047001.6,N
1674507695.1,286047001.7,N
1674507715.9,286047005.9,Y
1674507735.7,286047001.7,P
1674507755.6,286047002.6,P
1674507775.4,286047001.1,N
1674507795.3,286046998.5,N
1674507815.1,286047002.3,N
1674507816.0,286047002.3,N
1674507835.8,286047001.9,N
1674507855.7,286047002.7,N
1674507875.5,286046999.8,N
1674507895.3,286047000.1,N
1674507915.2,286047001.5,N
1674507935.0,286047001.5,N
1674507935.9,286047001.5,N
1674507955.8,286047001.2,N
1674507975.6,286047000.6,N
1674507995.5,286047000.9,N
1674508015.3,286047001.0,N
1674508035.1,286047001.5,N
1674508055.9,286047002.3,N
1674508075.7,286046999.8,N
1674508095.6,286047002.7,N
1674508115.4,286047004.4,Y
1674508135.2,286047001.8,P
1674508155.1,286047002.1,P
1674508156.0,286047002.1,P
1674508175.8,286046998.2,Y
1674508195.6,286046997.2,P
1674508215.5,286046995.2,N
1674508235.3,286046999.5,N
1674508255.2,286046998.7,N
1674508275.9,286046995.0,N
1674508295.7,286046999.5,N
1674508315.6,286046997.0,N
1674508335.4,286046999.3,N
1674508355.2,286047001.2,N
1674508375.1,286047002.8,N
1674508376.0,286047002.8,N
1674508395.8,286047000.0,N
1674508415.7,286047000.8,N
1674508435.5,286046998.7,N
1674508455.3,286046998.6,N
1674508475.2,286047000.9,N
1674508495.0,286047000.8,N
1674508495.9,286047000.8,N
1674508515.8,286047000.2,N
1674508535.6,286047000.5,N
1674508555.4,286046999.6,N
1674508575.3,286046995.7,N
1674508595.1,286046997.3,N
1674508615.8,286046997.5,N
1674508635.7,286046995.1,N
1674508655.5,286046994.9,N
1674508675.4,286046995.7,N
1674508695.2,286046997.0,N
1674508715.0,286046998.8,N
1674508715.9,286046998.8,N
1674508735.8,286046998.8,N
1674508755.6,286046996.5,N
1674508775.4,286046995.0,N
1674508795.3,286046997.8,N
1674508815.1,286046995.3,N
1674508835.9,286046998.2,N
1674508855.7,286047000.5,N
1674508875.5,286047000.7,N
1674508895.4,286046999.8,N
1674508915.2,286047002.8,N
1674508935.1,286047000.0,N
1674508936.0,286047000.0,N
1674508955.8,286047000.4,N
1674508975.7,286046998.4,N
1674508995.5,286046998.6,N
1674509015.3,286046999.3,N
1674509035.2,286046996.8,N
1674509055.0,286046995.2,N
1674509055.9,286046995.2,N
1674509075.7,286046995.8,N
1674509095.6,286046997.9,N
1674509115.4,286046999.0,N
1674509135.3,286046998.3,N
1674509155.1,286046997.4,N
1674509175.8,286046996.1,N
1674509195.7,286046996.3,N
1674509215.5,286046995.6,N
1674509235.4,286046993.8,Y
1674509255.2,286046995.7,P
1674509275.0,286046995.1,P
1674509275.9,286046995.1,P
1674509295.8,286046998.9,N
1674509315.6,286047000.0,N
1674509335.5,286047001.0,N
1674509355.3,286047002.6,N
1674509375.1,286046999.7,N
1674509395.9,286047002.4,N
1674509415.7,286047001.5,N
1674509435.6,286046999.8,N
1674509455.4,286047001.7,N
1674509475.2,286047000.5,N
1674509495.1,286046999.5,N
1674509496.0,286046999.5,N
1674509515.8,286046995.1,N
1674509535.7,286046999.6,N
1674509555.5,286046999.0,N
1674509575.3,286046999.2,N
1674509595.2,286047000.6,N
1674509615.9,286046998.6,N
1674509635.7,286046998.8,N
1674509655.6,286047001.1,N
1674509675.4,286047002.2,N
1674509695.3,286047002.7,N
1674509715.1,286047002.2,N
1674509716.0,286047002.2,N
1674509735.8,286047002.5,N
1674509755.7,286046998.3,N
1674509775.5,286046999.3,N
1674509795.3,286046999.8,N
1674509815.2,286046998.2,N
1674509835.0,286047000.1,N
1674509835.9,286047000.1,N
1674509855.8,286046998.5,N
1674509875.6,286046999.6,N
1674509895.4,286046997.8,N
1674509915.3,286046999.4,N
1674509935.1,286047000.7,N
1674509955.8,286046998.5,N
1674509975.7,286046999.9,N
1674509995.5,286047000.8,N
1674510015.4,286046998.5,N
1674510035.2,286046997.1,N
1674510055.1,286046996.6,N
1674510056.0,286046996.6,N
1674510075.8,286047000.3,N
1674510095.6,286047004.4,N
1674510115.5,286047002.5,N
1674510135.3,286047001.7,N
1674510155.1,286047001.3,N
1674510175.9,286047001.5,N
1674510195.7,286047001.2,N
1674510215.6,286047002.2,N
1674510235.4,286047001.7,N
1674510255.2,286047001.5,N
1674510275.1,286047000.7,N
1674510276.0,286047000.7,N
1674510295.8,286047002.6,N
1674510315.7,286046999.4,N
1674510335.5,286047000.0,N
1674510355.3,286046998.1,N
1674510375.2,286046998.3,N
1674510395.0,286047000.3,N
1674510395.9,286047000.3,N
1674510415.8,286047002.4,N
1674510435.6,286046998.2,N
1674510455.4,286047002.4,N
1674510475.3,286046998.4,N
1674510525.1,286047002.6,E
1674510535.1,286047001.2,N
1674510536.0,286047001.2,P
1674510555.8,286046998.8,P
1674510575.6,286047002.5,N
1674510595.5,286047004.4,Y
1674510615.3,286047002.0,P
1674510635.1,286046996.7,P
1674510655.9,286046997.4,N
1674510675.7,286046999.4,N
1674510695.6,286046999.4,N
1674510715.4,286046997.3,N
1674510735.2,286046996.2,N
1674510755.1,286046996.1,N
1674510756.0,286046996.1,N
1674510775.8,286046994.9,N
1674510795.7,286046995.9,N
1674510815.5,286046991.9,Y
1674510835.3,286046997.0,P
1674510855.2,286046997.2,P
1674510875.0,286046998.3,P
1674510875.9,286046998.3,Y
1674510895.7,286047003.5,P
1674510915.6,286046999.8,N
1674510935.4,286047001.1,N
1674510955.3,286047000.8,N
1674510975.1,286047001.7,N
1674510976.0,286047001.7,N
1674510995.8,286047002.5,N
1674511015.7,286047004.0,N
1674511035.5,286046999.9,N
1674511055.3,286047002.5,N
1674511075.2,286047004.1,N
1674511095.0,286047004.2,N
1674511095.9,286047004.2,N
1674511115.8,286047004.2,N
1674511135.6,286047002.3,N
1674511155.4,286047004.3,N
1674511175.3,286047001.9,N
1674511195.1,286047001.0,N
